Home > Weather > Seoul > Past weeks

Flag for South Korea Past Weather in Seoul, South Korea — Yesterday and Last 2 Weeks

Now
59 °F

Fog.


Feels Like: 59 °F
Forecast: 59 / 83 °F
Wind: 1 mph from Northeast

Location: Seoul / Kimp'O International Airport

Current Time: May 30, 2016 at 6:18:03 AM

Latest Report: May 30, 2016 at 5:00 AM


Visibility: 2 mi

Pressure: 29.71 "Hg

Humidity: 88%

Dew Point: 55 °F

Location of SeoulLocation

Past Weather in Seoul — Graph

°F

Seoul Temperature Yesterday

Maximum temperature yesterday: 79 °F (at 3:00 PM)
Minimum temperature yesterday: 59 °F (at 12:00 AM)
Average temperature yesterday: 68 °F

High & Low Weather Summary for the Past Weeks

 TemperatureHumidityPressure
High90 °F (May 22, 3:00 PM)94% (May 24, 6:00 AM)30.12 "Hg (May 24, 6:00 AM)
Low48 °F (May 17, 3:00 AM)9% (May 21, 1:00 PM)29.62 "Hg (May 29, 3:00 PM)
Average68 °F56%29.89 "Hg
* Reported May 15 5:00 AM — May 30 5:00 AM, Seoul, Weather by CustomWeather, © 2016

Note: Actual official high and low records may vary slightly from our data, if they occured in-between our weather recording intervals... More about our weather records

Advertising

Seoul Weather History for the Previous 24 Hours

Scroll right to see more
 ConditionsComfort  
Time TempWeatherWind HumidityBarometerVisibility
5:00 AM
Mon, May 30
59 °FFog.1 mph88%29.71 "Hg2 mi
4:00 AM61 °FFog.2 mph83%29.71 "Hg2 mi
3:00 AM59 °FFog.1 mph88%29.68 "Hg2 mi
2:00 AM61 °FFog.2 mph83%29.68 "Hg1 mi
1:00 AM61 °FFog.No wind83%29.68 "Hg1 mi
12:00 AM63 °FFog.No wind77%29.68 "Hg2 mi
11:00 PM
Sun, May 29
64 °FFog.No wind78%29.68 "Hg2 mi
10:00 PM64 °FHaze.2 mph78%29.68 "Hg2 mi
9:00 PM66 °FHaze.2 mph68%29.65 "Hg3 mi
8:00 PM68 °FClear.3 mph64%29.65 "Hg4 mi
7:00 PM72 °FSunny.5 mph47%29.65 "Hg10 mi
6:00 PM73 °FSunny.9 mph44%29.62 "Hg10 mi
5:00 PM75 °FSunny.14 mph39%29.62 "Hg10 mi
4:00 PM77 °FSunny.10 mph39%29.62 "Hg10 mi
3:00 PM79 °FPassing clouds.8 mph39%29.62 "HgN/A
2:00 PM77 °FPassing clouds.7 mph39%29.65 "HgN/A
1:00 PM77 °FPassing clouds.6 mph39%29.65 "HgN/A
12:00 PM75 °FScattered clouds.6 mph41%29.68 "Hg5 mi
11:00 AM72 °FBroken clouds.3 mph57%29.71 "Hg4 mi
10:00 AM72 °FBroken clouds.5 mph53%29.71 "Hg4 mi
9:00 AM66 °FFog.1 mph73%29.71 "Hg3 mi
8:00 AM64 °FFog.6 mph78%29.74 "Hg2 mi
7:00 AM63 °FFog.7 mph83%29.71 "Hg2 mi
6:00 AM61 °FFog.2 mph83%29.71 "Hg2 mi
Weather by CustomWeather, © 2016

See weather overviewHow to use our weather pages